Tracking 35331 objects as of 15-Sep-2026
HD Live streaming from Space Station
objects crossing your sky now

STARLINK-34797

Track STARLINK-34797 now!
10-day predictions
STARLINK-34797 is classified as:


NORAD ID: 65363
Int'l Code: 2025-190N
Launch date: August 28, 2025
Source: United States (US)
Launch site: AIR FORCE EASTERN TEST RANGE (AFETR)
Your satellite tracking list
Your tracking list is empty




NASA's NSSDC Master Catalog

Two Line Element Set (TLE):
1 65363U 25190N   26257.33491465  .00017476  00000-0  52699-3 0  9996
2 65363  53.1599   8.6784 0001021  90.2700 269.8420 15.34409150 58682
Source of the keplerian elements: AFSPC